Time,TemperatureF,DewpointF,PressureIn,WindDirection,WindDirectionDegrees,WindSpeedMPH,WindSpeedGustMPH,Humidity,HourlyPrecipIn,Conditions,Clouds,dailyrainin,SoftwareType,DateUTC
2013-03-13 00:08:00,35.4,30.0,29.95,SW,215,3.0,-999.0,79,-99.99,,,0.00,weatherlink.com 1.10,2013-03-13 04:08:00,
2013-03-13 00:23:00,35.1,30.0,29.95,SW,219,6.0,-999.0,81,-99.99,,,0.00,weatherlink.com 1.10,2013-03-13 04:23:00,
2013-03-13 00:38:00,35.2,30.0,29.95,SW,229,8.0,-999.0,81,-99.99,,,0.00,weatherlink.com 1.10,2013-03-13 04:38:00,
2013-03-13 00:53:00,35.2,30.0,29.95,SW,224,8.0,-999.0,81,-99.99,,,0.00,weatherlink.com 1.10,2013-03-13 04:53:00,
2013-03-13 01:08:00,35.2,30.0,29.95,WSW,246,8.0,-999.0,80,-99.99,,,0.00,weatherlink.com 1.10,2013-03-13 05:08:00,
2013-03-13 01:23:00,35.0,30.0,29.95,SW,231,5.0,-999.0,82,-99.99,,,0.00,weatherlink.com 1.10,2013-03-13 05:23:00,
2013-03-13 01:38:00,34.8,30.0,29.95,WSW,254,4.0,-999.0,83,-99.99,,,0.00,weatherlink.com 1.10,2013-03-13 05:38:00,
2013-03-13 01:53:00,34.6,30.0,29.95,SSW,213,6.0,-999.0,84,-99.99,,,0.00,weatherlink.com 1.10,2013-03-13 05:53:00,
2013-03-13 02:08:00,34.5,31.0,29.95,SSW,194,4.0,-999.0,85,-99.99,,,0.00,weatherlink.com 1.10,2013-03-13 06:08:00,
2013-03-13 02:23:00,34.7,30.0,29.95,SW,236,3.0,-999.0,84,-99.99,,,0.00,weatherlink.com 1.10,2013-03-13 06:23:00,
2013-03-13 02:38:00,34.7,30.0,29.95,SW,230,4.0,-999.0,83,-99.99,,,0.00,weatherlink.com 1.10,2013-03-13 06:38:00,
2013-03-13 02:53:00,34.8,30.0,29.94,SW,233,6.0,-999.0,83,-99.99,,,0.00,weatherlink.com 1.10,2013-03-13 06:53:00,
2013-03-13 03:08:00,34.8,30.0,29.94,WNW,294,4.0,-999.0,83,-99.99,,,0.00,weatherlink.com 1.10,2013-03-13 07:08:00,
2013-03-13 03:23:00,34.7,30.0,29.93,SSW,208,5.0,-999.0,82,-99.99,,,0.00,weatherlink.com 1.10,2013-03-13 07:23:00,
2013-03-13 03:38:00,34.7,30.0,29.93,South,185,5.0,-999.0,82,-99.99,,,0.00,weatherlink.com 1.10,2013-03-13 07:38:00,
2013-03-13 03:53:00,34.6,30.0,29.93,WSW,249,2.0,-999.0,83,-99.99,,,0.00,weatherlink.com 1.10,2013-03-13 07:53:00,
2013-03-13 04:08:00,34.5,30.0,29.92,WSW,246,4.0,-999.0,83,-99.99,,,0.00,weatherlink.com 1.10,2013-03-13 08:08:00,
2013-03-13 04:23:00,34.4,30.0,29.91,WSW,244,1.0,-999.0,83,-99.99,,,0.00,weatherlink.com 1.10,2013-03-13 08:23:00,
2013-03-13 04:38:00,34.2,30.0,29.91,SW,228,4.0,-999.0,83,-99.99,,,0.00,weatherlink.com 1.10,2013-03-13 08:38:00,
2013-03-13 04:53:00,33.9,30.0,29.91,WSW,251,3.0,-999.0,84,-99.99,,,0.00,weatherlink.com 1.10,2013-03-13 08:53:00,
2013-03-13 05:08:00,33.9,30.0,29.91,West,265,2.0,-999.0,84,-99.99,,,0.00,weatherlink.com 1.10,2013-03-13 09:08:00,
2013-03-13 05:23:00,34.2,30.0,29.91,SSW,210,0.0,-999.0,83,-99.99,,,0.00,weatherlink.com 1.10,2013-03-13 09:23:00,
2013-03-13 05:39:00,34.1,30.0,29.90,SSW,202,2.0,-999.0,83,-99.99,,,0.00,weatherlink.com 1.10,2013-03-13 09:39:00,
2013-03-13 05:53:00,33.7,29.0,29.90,SSW,205,0.0,-999.0,84,-99.99,,,0.00,weatherlink.com 1.10,2013-03-13 09:53:00,
2013-03-13 06:08:00,33.4,29.0,29.91,WSW,252,8.0,-999.0,83,-99.99,,,0.00,weatherlink.com 1.10,2013-03-13 10:08:00,
2013-03-13 06:23:00,33.2,29.0,29.91,WSW,249,7.0,-999.0,83,-99.99,,,0.00,weatherlink.com 1.10,2013-03-13 10:23:00,
2013-03-13 06:38:00,33.0,28.0,29.91,WSW,242,9.0,-999.0,81,-99.99,,,0.00,weatherlink.com 1.10,2013-03-13 10:38:00,
2013-03-13 06:54:00,32.8,28.0,29.91,WSW,237,7.0,-999.0,82,-99.99,,,0.00,weatherlink.com 1.10,2013-03-13 10:54:00,
2013-03-13 07:09:00,32.7,28.0,29.91,WSW,251,5.0,-999.0,82,-99.99,,,0.00,weatherlink.com 1.10,2013-03-13 11:09:00,
2013-03-13 07:24:00,32.7,28.0,29.91,SW,231,9.0,-999.0,82,-99.99,,,0.00,weatherlink.com 1.10,2013-03-13 11:24:00,
2013-03-13 07:39:00,32.7,28.0,29.91,WSW,237,4.0,-999.0,82,-99.99,,,0.00,weatherlink.com 1.10,2013-03-13 11:39:00,
2013-03-13 07:54:00,32.7,28.0,29.91,WSW,252,2.0,-999.0,82,-99.99,,,0.00,weatherlink.com 1.10,2013-03-13 11:54:00,
2013-03-13 08:09:00,32.8,27.0,29.91,WSW,255,5.0,-999.0,80,-99.99,,,0.00,weatherlink.com 1.10,2013-03-13 12:09:00,
2013-03-13 08:24:00,32.8,27.0,29.91,SW,235,5.0,-999.0,80,-99.99,,,0.00,weatherlink.com 1.10,2013-03-13 12:24:00,
2013-03-13 08:39:00,33.0,27.0,29.91,West,265,6.0,-999.0,79,-99.99,,,0.00,weatherlink.com 1.10,2013-03-13 12:39:00,
2013-03-13 08:54:00,33.2,27.0,29.90,SW,220,3.0,-999.0,78,-99.99,,,0.00,weatherlink.com 1.10,2013-03-13 12:54:00,
2013-03-13 09:09:00,33.7,28.0,29.90,SW,224,4.0,-999.0,78,-99.99,,,0.00,weatherlink.com 1.10,2013-03-13 13:09:00,
2013-03-13 09:24:00,33.3,27.0,29.91,SSW,213,6.0,-999.0,79,-99.99,,,0.00,weatherlink.com 1.10,2013-03-13 13:24:00,
2013-03-13 09:39:00,31.2,28.0,29.91,SSW,196,6.0,-999.0,89,-99.99,,,0.00,weatherlink.com 1.10,2013-03-13 13:39:00,
2013-03-13 09:54:00,30.8,29.0,29.90,SSW,196,1.0,-999.0,92,-99.99,,,0.00,weatherlink.com 1.10,2013-03-13 13:54:00,
2013-03-13 10:09:00,30.9,29.0,29.90,SSW,207,0.0,-999.0,93,-99.99,,,0.00,weatherlink.com 1.10,2013-03-13 14:09:00,
2013-03-13 10:24:00,31.3,30.0,29.90,SW,219,0.0,-999.0,94,-99.99,,,0.00,weatherlink.com 1.10,2013-03-13 14:24:00,
2013-03-13 10:39:00,32.2,31.0,29.90,SW,219,0.0,-999.0,95,-99.99,,,0.01,weatherlink.com 1.10,2013-03-13 14:39:00,
2013-03-13 10:54:00,32.8,32.0,29.90,SSW,200,0.0,-999.0,95,-99.99,,,0.01,weatherlink.com 1.10,2013-03-13 14:54:00,
2013-03-13 11:09:00,33.6,32.0,29.90,WNW,285,11.0,-999.0,94,-99.99,,,0.01,weatherlink.com 1.10,2013-03-13 15:09:00,
2013-03-13 11:24:00,34.3,32.0,29.90,West,277,16.0,-999.0,90,-99.99,,,0.01,weatherlink.com 1.10,2013-03-13 15:24:00,
2013-03-13 11:39:00,34.6,31.0,29.90,WNW,286,7.0,-999.0,87,-99.99,,,0.01,weatherlink.com 1.10,2013-03-13 15:39:00,
2013-03-13 11:54:00,34.2,31.0,29.90,West,271,4.0,-999.0,89,-99.99,,,0.01,weatherlink.com 1.10,2013-03-13 15:54:00,
2013-03-13 12:09:00,34.9,31.0,29.89,West,278,9.0,-999.0,87,-99.99,,,0.01,weatherlink.com 1.10,2013-03-13 16:09:00,
2013-03-13 12:24:00,35.2,31.0,29.89,WSW,246,6.0,-999.0,86,-99.99,,,0.01,weatherlink.com 1.10,2013-03-13 16:24:00,
2013-03-13 12:39:00,36.1,33.0,29.88,WSW,240,8.0,-999.0,87,-99.99,,,0.01,weatherlink.com 1.10,2013-03-13 16:39:00,
2013-03-13 12:54:00,36.0,32.0,29.88,SW,231,4.0,-999.0,86,-99.99,,,0.01,weatherlink.com 1.10,2013-03-13 16:54:00,
2013-03-13 13:09:00,33.8,31.0,29.89,WNW,292,13.0,-999.0,89,-99.99,,,0.01,weatherlink.com 1.10,2013-03-13 17:09:00,
2013-03-13 13:24:00,32.0,31.0,29.90,WNW,297,18.0,-999.0,94,-99.99,,,0.01,weatherlink.com 1.10,2013-03-13 17:24:00,
2013-03-13 13:39:00,32.2,31.0,29.91,NW,313,9.0,-999.0,95,-99.99,,,0.01,weatherlink.com 1.10,2013-03-13 17:39:00,
2013-03-13 13:54:00,33.3,32.0,29.91,NW,306,18.0,-999.0,95,-99.99,,,0.01,weatherlink.com 1.10,2013-03-13 17:54:00,
2013-03-13 14:09:00,34.0,32.0,29.91,WNW,297,13.0,-999.0,93,-99.99,,,0.01,weatherlink.com 1.10,2013-03-13 18:09:00,
2013-03-13 14:24:00,31.8,30.0,29.91,West,273,12.0,-999.0,93,-99.99,,,0.01,weatherlink.com 1.10,2013-03-13 18:24:00,
2013-03-13 14:39:00,34.3,32.0,29.91,NW,308,14.0,-999.0,90,-99.99,,,0.01,weatherlink.com 1.10,2013-03-13 18:39:00,
2013-03-13 14:54:00,34.4,29.0,29.91,WNW,284,20.0,-999.0,80,-99.99,,,0.01,weatherlink.com 1.10,2013-03-13 18:54:00,
2013-03-13 15:09:00,33.7,28.0,29.91,WNW,284,20.0,-999.0,79,-99.99,,,0.01,weatherlink.com 1.10,2013-03-13 19:09:00,
2013-03-13 15:24:00,34.1,27.0,29.92,WNW,292,13.0,-999.0,74,-99.99,,,0.01,weatherlink.com 1.10,2013-03-13 19:24:00,
2013-03-13 15:39:00,34.2,26.0,29.92,WNW,291,15.0,-999.0,72,-99.99,,,0.01,weatherlink.com 1.10,2013-03-13 19:39:00,
2013-03-13 15:54:00,33.9,26.0,29.92,WNW,289,13.0,-999.0,73,-99.99,,,0.01,weatherlink.com 1.10,2013-03-13 19:54:00,
2013-03-13 16:09:00,34.4,26.0,29.93,WNW,294,19.0,-999.0,72,-99.99,,,0.01,weatherlink.com 1.10,2013-03-13 20:09:00,
2013-03-13 16:24:00,33.4,25.0,29.93,West,281,26.0,-999.0,71,-99.99,,,0.02,weatherlink.com 1.10,2013-03-13 20:24:00,
2013-03-13 16:39:00,32.7,25.0,29.93,WNW,282,19.0,-999.0,72,-99.99,,,0.02,weatherlink.com 1.10,2013-03-13 20:39:00,
2013-03-13 16:54:00,32.6,25.0,29.94,WNW,288,25.0,-999.0,73,-99.99,,,0.02,weatherlink.com 1.10,2013-03-13 20:54:00,
2013-03-13 17:09:00,31.7,23.0,29.95,WNW,290,15.0,-999.0,71,-99.99,,,0.02,weatherlink.com 1.10,2013-03-13 21:09:00,
2013-03-13 17:24:00,31.7,23.0,29.95,West,276,17.0,-999.0,70,-99.99,,,0.02,weatherlink.com 1.10,2013-03-13 21:24:00,
2013-03-13 17:39:00,31.3,23.0,29.95,West,277,14.0,-999.0,70,-99.99,,,0.02,weatherlink.com 1.10,2013-03-13 21:39:00,
2013-03-13 17:54:00,30.1,23.0,29.96,WSW,252,15.0,-999.0,75,-99.99,,,0.02,weatherlink.com 1.10,2013-03-13 21:54:00,
2013-03-13 18:09:00,30.6,23.0,29.96,West,272,18.0,-999.0,73,-99.99,,,0.02,weatherlink.com 1.10,2013-03-13 22:09:00,
2013-03-13 18:24:00,30.3,22.0,29.96,NW,307,21.0,-999.0,72,-99.99,,,0.02,weatherlink.com 1.10,2013-03-13 22:24:00,
2013-03-13 18:39:00,30.2,23.0,29.97,West,259,16.0,-999.0,74,-99.99,,,0.02,weatherlink.com 1.10,2013-03-13 22:39:00,
2013-03-13 18:55:00,29.7,23.0,29.98,West,275,25.0,-999.0,77,-99.99,,,0.02,weatherlink.com 1.10,2013-03-13 22:55:00,
2013-03-13 19:25:00,28.0,24.0,29.98,WNW,296,16.0,-999.0,86,-99.99,,,0.02,weatherlink.com 1.10,2013-03-13 23:25:00,
2013-03-13 19:40:00,29.3,22.0,29.99,West,275,25.0,-999.0,73,-99.99,,,0.02,weatherlink.com 1.10,2013-03-13 23:40:00,
2013-03-13 19:55:00,29.2,21.0,29.99,WNW,296,21.0,-999.0,70,-99.99,,,0.02,weatherlink.com 1.10,2013-03-13 23:55:00,
2013-03-13 20:10:00,28.8,21.0,30.00,West,267,22.0,-999.0,73,-99.99,,,0.02,weatherlink.com 1.10,2013-03-14 00:10:00,
2013-03-13 20:25:00,28.7,21.0,30.00,WNW,294,23.0,-999.0,73,-99.99,,,0.02,weatherlink.com 1.10,2013-03-14 00:25:00,
2013-03-13 20:40:00,28.3,21.0,30.01,West,281,19.0,-999.0,74,-99.99,,,0.02,weatherlink.com 1.10,2013-03-14 00:40:00,
2013-03-13 20:55:00,28.3,22.0,30.01,WNW,290,17.0,-999.0,76,-99.99,,,0.02,weatherlink.com 1.10,2013-03-14 00:55:00,
2013-03-13 21:10:00,26.5,23.0,30.02,WNW,290,17.0,-999.0,86,-99.99,,,0.02,weatherlink.com 1.10,2013-03-14 01:10:00,
2013-03-13 21:25:00,25.4,23.0,30.03,West,279,23.0,-999.0,92,-99.99,,,0.02,weatherlink.com 1.10,2013-03-14 01:25:00,
2013-03-13 21:40:00,26.8,24.0,30.03,NNW,340,15.0,-999.0,88,-99.99,,,0.02,weatherlink.com 1.10,2013-03-14 01:40:00,
2013-03-13 21:55:00,26.2,22.0,30.03,NNW,340,12.0,-999.0,84,-99.99,,,0.02,weatherlink.com 1.10,2013-03-14 01:55:00,
2013-03-13 22:10:00,26.2,18.0,30.04,North,355,14.0,-999.0,72,-99.99,,,0.02,weatherlink.com 1.10,2013-03-14 02:10:00,
2013-03-13 22:25:00,25.9,18.0,30.05,WNW,300,13.0,-999.0,71,-99.99,,,0.02,weatherlink.com 1.10,2013-03-14 02:25:00,
2013-03-13 22:40:00,25.4,15.0,30.06,North,5,20.0,-999.0,66,-99.99,,,0.02,weatherlink.com 1.10,2013-03-14 02:40:00,
2013-03-13 22:55:00,24.9,14.0,30.06,NNW,342,18.0,-999.0,64,-99.99,,,0.02,weatherlink.com 1.10,2013-03-14 02:55:00,
2013-03-13 23:10:00,24.8,15.0,30.07,NNW,328,16.0,-999.0,66,-99.99,,,0.02,weatherlink.com 1.10,2013-03-14 03:10:00,
2013-03-13 23:40:00,24.1,14.0,30.06,NW,325,11.0,-999.0,66,-99.99,,,0.02,weatherlink.com 1.10,2013-03-14 03:40:00,
2013-03-13 23:55:00,24.6,15.0,30.07,NNW,343,18.0,-999.0,67,-99.99,,,0.02,weatherlink.com 1.10,2013-03-14 03:55:00,